This is the latest recevied weather packets stored in our database for station/object KA3ZXO. If no packets are shown the sender has not sent any weather packets the latest 10 day(s).
| Time | Temp. | Humidity | Pressure | Rain* | Wind** | Luminosity | Snow |
|---|---|---|---|---|---|---|---|
| 1777579115 | 20.56° C | 43% | 1007.9 hPa | 0 mm | - | 562 W/m² | - |
| 1777578511 | 21.67° C | 40% | 1007.5 hPa | 0 mm | - | 386 W/m² | - |
| 1777577907 | 21.11° C | 41% | 1007.7 hPa | 0 mm | - | 602 W/m² | - |
| 1777577306 | 20.56° C | 42% | 1007.6 hPa | 0 mm | - | 140 W/m² | - |
| 1777576706 | 21.67° C | 41% | 1007.7 hPa | 0 mm | - | 543 W/m² | - |
| 1777576101 | 20.56° C | 42% | 1007.8 hPa | 0 mm | - | 109 W/m² | - |
| 1777575499 | 21.11° C | 40% | 1007.6 hPa | 0 mm | - | 116 W/m² | - |
| 1777574897 | 20.56° C | 42% | 1007.8 hPa | 0 mm | - | 641 W/m² | - |
| 1777574296 | 21.11° C | 42% | 1008 hPa | 0 mm | - | 687 W/m² | - |
| 1777573693 | 21.11° C | 44% | 1007.9 hPa | 0 mm | - | 330 W/m² | - |
| 1777573091 | 20° C | 42% | 1007.7 hPa | 0 mm | - | 624 W/m² | - |
| 1777572488 | 20° C | 43% | 1007.8 hPa | 0 mm | - | 93 W/m² | - |
| 1777571885 | 20° C | 42% | 1007.9 hPa | 0 mm | - | 65 W/m² | - |
| 1777571284 | 20.56° C | 44% | 1007.7 hPa | 0 mm | - | 54 W/m² | - |
| 1777570682 | 20° C | 41% | 1007.8 hPa | 0 mm | - | 232 W/m² | - |
| 1777570080 | 20° C | 45% | 1008 hPa | 0 mm | - | 113 W/m² | - |
| 1777569477 | 19.44° C | 47% | 1008 hPa | 0 mm | - | 67 W/m² | - |
| 1777568877 | 19.44° C | 46% | 1008.1 hPa | 0 mm | - | 44 W/m² | - |
| 1777568271 | 19.44° C | 46% | 1008.1 hPa | 0 mm | - | 43 W/m² | - |
| 1777567670 | 19.44° C | 47% | 1008.2 hPa | 0 mm | - | 111 W/m² | - |
| 1777567065 | 19.44° C | 48% | 1008.2 hPa | 0 mm | - | 164 W/m² | - |
| 1777566461 | 18.89° C | 48% | 1008.2 hPa | 0 mm | - | 49 W/m² | - |
| 1777565859 | 18.89° C | 47% | 1008.3 hPa | 0 mm | - | 42 W/m² | - |
| 1777565258 | 18.89° C | 50% | 1008.3 hPa | 0 mm | - | 41 W/m² | - |
| 1777564656 | 18.89° C | 49% | 1008.2 hPa | 0 mm | - | 61 W/m² | - |
* Rain latest hour (hover to see other rain measurements)
** Current wind speed in m/s (hover to see current wind gust speed)